Weather History for Missoula, MT

Change the Weather History Date:

Wednesday, May 14, 2014

  Actual Average Record
Temperature  
Mean Temperature 54 °F 53 °F  
Max Temperature 74 °F 67 °F 88 °F (1939)
Min Temperature 34 °F 39 °F 29 °F (1995)
Degree Days  
Heating Degree Days 11 12  
Month to date heating degree days 207 194  
Since 1 July heating degree days 7199 6957  
Cooling Degree Days 0 0  
Month to date cooling degree days 0 0  
Year to date cooling degree days 0 0  
Growing Degree Days 4 (Base 50)    
Moisture  
Dew Point 34 °F    
Average Humidity 53    
Maximum Humidity 82    
Minimum Humidity 23    
Precipitation  
Precipitation 0.00 in 0.06 in 0.59 in (1955)
Month to date precipitation 0.87 0.71  
Year to date precipitation 6.71 4.48  
Snow  
Snow 0.00 in - - ()
Month to date snowfall 0.1  
Year to date snowfall 51.9  
Since 1 July snowfall 65.8  
Snow Depth 0.00 in    
Sea Level Pressure  
Sea Level Pressure 30.35 in    
Wind  
Wind Speed 3 mph (NNW)    
Max Wind Speed 17 mph    
Max Gust Speed 23 mph    
Visibility 10 miles    
Events      
T = Trace of Precipitation, MM = Missing Value Source: NWS Daily Summary

Daily Weather History Graph

Daily Weather History Graph

Search for Another Location

Airport:

Trip Planner

Search our weather history database for the weather conditions in past years. The results will help you decide how hot, cold, wet, or windy it might be!

Date:

Astronomy

May. 14, 2014 Rise Set
Actual Time 6:02 AM MDT 9:03 PM MDT
Civil Twilight 5:26 AM MDT 9:39 PM MDT
Nautical Twilight 4:40 AM MDT 10:26 PM MDT
Astronomical Twilight 3:44 AM MDT 11:22 PM MDT
Moon 9:11 PM MDT (5/14) 6:07 AM MDT (5/14)
Length of Visible Light 16h 13m
Length of Day
15h 01m
Full, 100% of the Moon is Illuminated
May 14
Full
May 14
Full
May 21
Last Quarter
May 28
New
Jun 5
First Quarter

Hourly Weather History & Observations

Time (MDT) Temp. Windchill Dew Point Humidity Pressure Visibility Wind Dir Wind Speed Gust Speed Precip Events Conditions
12:53 AM 43.0 °F - 30.9 °F 62% 30.43 in 10.0 mi Calm Calm - N/A   Clear
1:53 AM 44.1 °F - 30.0 °F 58% 30.42 in 10.0 mi Calm Calm - N/A   Clear
2:53 AM 39.9 °F - 30.0 °F 68% 30.44 in 10.0 mi Calm Calm - N/A   Clear
3:53 AM 39.9 °F 37.8 °F 30.9 °F 70% 30.43 in 10.0 mi ESE 3.5 mph - N/A   Clear
4:53 AM 36.0 °F - 30.0 °F 79% 30.44 in 10.0 mi Calm Calm - N/A   Clear
5:53 AM 36.0 °F - 28.9 °F 76% 30.44 in 10.0 mi Calm Calm - N/A   Clear
6:53 AM 35.1 °F 32.2 °F 28.9 °F 78% 30.46 in 10.0 mi NW 3.5 mph - N/A   Clear
7:53 AM 41.0 °F - 32.0 °F 70% 30.46 in 10.0 mi Calm Calm - N/A   Mostly Cloudy
8:53 AM 44.6 °F - 33.8 °F 66% 30.44 in 10.0 mi Calm Calm - N/A   Overcast
9:53 AM 48.0 °F - 34.0 °F 58% 30.45 in 10.0 mi Calm Calm - N/A   Overcast
10:53 AM 51.1 °F - 34.0 °F 52% 30.45 in 10.0 mi Calm Calm - N/A   Overcast
11:53 AM 55.0 °F - 34.0 °F 45% 30.42 in 10.0 mi Calm Calm - N/A   Overcast
11:55 AM 59.0 °F - 35.6 °F 42% 30.40 in 10.0 mi North - - N/A   Overcast
12:53 PM 57.9 °F - 32.0 °F 37% 30.40 in 10.0 mi Calm Calm - N/A   Overcast
1:53 PM 64.0 °F - 30.9 °F 29% 30.35 in 10.0 mi Calm Calm - N/A   Partly Cloudy
2:53 PM 69.8 °F - 33.8 °F 27% 30.30 in 10.0 mi North - - N/A   Clear
3:53 PM 73.0 °F - 35.1 °F 25% 30.27 in 10.0 mi NW 10.4 mph - N/A   Clear
4:53 PM 73.9 °F - 34.0 °F 23% 30.26 in 10.0 mi NNW 13.8 mph 20.7 mph N/A   Clear
5:53 PM 72.0 °F - 35.1 °F 26% 30.25 in 10.0 mi NNW 9.2 mph - N/A   Mostly Cloudy
6:53 PM 70.0 °F - 37.0 °F 30% 30.23 in 10.0 mi NNE 6.9 mph - N/A   Overcast
7:53 PM 70.0 °F - 37.9 °F 31% 30.21 in 10.0 mi NNE 6.9 mph - N/A   Overcast
8:53 PM 66.0 °F - 39.0 °F 37% 30.22 in 10.0 mi North 4.6 mph - N/A   Overcast
9:53 PM 59.0 °F - 41.0 °F 51% 30.24 in 10.0 mi North 5.8 mph - N/A   Partly Cloudy
10:53 PM 53.1 °F - 41.0 °F 64% 30.25 in 10.0 mi Calm Calm - N/A   Clear
11:53 PM 53.1 °F - 39.9 °F 61% 30.25 in 10.0 mi SW 3.5 mph - N/A   Clear